"Time","410130","410130","410130","410130","410130"
"and",100.00,400.00,3000.00,3500.00,5067.00
"Date","Water Level (m)","Discharge (ML/Day)","Cond @25 degC(uS/cm)","Water Temp (Deg C)","Disolv Oxgn (mg/l)"
"","Mean","Mean","Mean","Mean","Mean"
09:00:00 22/06/1979,,,,,
09:00:00 23/06/1979,2.077,1968.406,,,
09:00:00 24/06/1979,2.053,1935.108,,,
09:00:00 25/06/1979,2.003,1868.804,,,
09:00:00 26/06/1979,1.856,1673.493,,,
09:00:00 27/06/1979,1.672,1418.831,,,
09:00:00 28/06/1979,1.638,1373.762,,,
09:00:00 29/06/1979,1.9,1731.241,,,
09:00:00 30/06/1979,2.049,1930.037,,,
09:00:00 01/07/1979,2.131,2042.622,,,
09:00:00 02/07/1979,,,,,
09:00:00 03/07/1979,,,,,
09:00:00 04/07/1979,,,,,
09:00:00 05/07/1979,2.025,1898.321,,,
09:00:00 06/07/1979,1.83,1637.815,,,
09:00:00 07/07/1979,1.646,1384.049,,,
09:00:00 08/07/1979,1.57,1284.977,,,
09:00:00 09/07/1979,1.653,1392.915,,,
09:00:00 10/07/1979,1.855,1671.722,,,
09:00:00 11/07/1979,2.172,2100.627,,,
09:00:00 12/07/1979,2.36,2366.354,,,
09:00:00 13/07/1979,2.419,2453.834,,,
09:00:00 14/07/1979,2.438,2483.091,,,
09:00:00 15/07/1979,,,,,
09:00:00 16/07/1979,,,,,
09:00:00 17/07/1979,2.452,2503.446,,,
09:00:00 18/07/1979,2.453,2505.143,,,
09:00:00 19/07/1979,,,,,
09:00:00 20/07/1979,,,,,
09:00:00 21/07/1979,2.451,2503.115,,,
09:00:00 22/07/1979,,,,,
09:00:00 23/07/1979,,,,,
09:00:00 24/07/1979,2.508,2589.353,,,
09:00:00 25/07/1979,2.556,2664.353,,,
09:00:00 26/07/1979,2.562,2673.087,,,
09:00:00 27/07/1979,2.529,2622.363,,,
09:00:00 28/07/1979,2.429,2470.503,,,
09:00:00 29/07/1979,2.213,2158.028,,,
09:00:00 30/07/1979,1.981,1838.683,,,
09:00:00 31/07/1979,1.783,1574.133,,,
09:00:00 01/08/1979,1.616,1343.819,,,
09:00:00 02/08/1979,1.495,1197.408,,,
09:00:00 03/08/1979,1.407,1098.248,,,
09:00:00 04/08/1979,1.312,993.37,,,
09:00:00 05/08/1979,1.236,909.513,,,
09:00:00 06/08/1979,1.2,870.095,,,
09:00:00 07/08/1979,1.177,847.032,,,
09:00:00 08/08/1979,,,,,
09:00:00 09/08/1979,,,,,
09:00:00 10/08/1979,,,,,
09:00:00 11/08/1979,1.144,813.232,,,
09:00:00 12/08/1979,1.129,799.114,,,
09:00:00 13/08/1979,1.124,793.545,,,
09:00:00 14/08/1979,1.112,782.101,,,
09:00:00 15/08/1979,1.105,775.344,,,
09:00:00 16/08/1979,1.117,787.149,,,
09:00:00 17/08/1979,1.135,804.616,,,
09:00:00 18/08/1979,1.142,811.596,,,
09:00:00 19/08/1979,,,,,
09:00:00 20/08/1979,,,,,
09:00:00 21/08/1979,1.17,839.946,,,
09:00:00 22/08/1979,1.167,836.644,,,
09:00:00 23/08/1979,1.15,819.926,,,
09:00:00 24/08/1979,1.027,697.87,,,
09:00:00 25/08/1979,1.0,670.238,,,
09:00:00 26/08/1979,1.08,749.197,,,
09:00:00 27/08/1979,1.118,788.077,,,
09:00:00 28/08/1979,1.307,987.133,,,
09:00:00 29/08/1979,1.511,1218.235,,,
09:00:00 30/08/1979,1.803,1599.523,,,
09:00:00 31/08/1979,2.022,1894.296,,,
09:00:00 01/09/1979,2.047,1927.827,,,
09:00:00 02/09/1979,1.936,1778.482,,,
09:00:00 03/09/1979,1.731,1502.434,,,
09:00:00 04/09/1979,1.545,1256.109,,,
09:00:00 05/09/1979,1.406,1096.613,,,
09:00:00 06/09/1979,1.32,1001.565,,,
09:00:00 07/09/1979,1.269,945.499,,,
09:00:00 08/09/1979,1.27,946.536,,,
09:00:00 09/09/1979,1.457,1155.394,,,
09:00:00 10/09/1979,1.683,1434.803,,,
09:00:00 11/09/1979,1.822,1628.557,,,
09:00:00 12/09/1979,1.866,1685.894,,,
09:00:00 13/09/1979,1.784,1576.66,,,
09:00:00 14/09/1979,1.613,1341.338,,,
09:00:00 15/09/1979,1.422,1115.241,,,
09:00:00 16/09/1979,1.315,995.838,,,
09:00:00 17/09/1979,1.227,899.084,,,
09:00:00 18/09/1979,1.16,829.626,,,
09:00:00 19/09/1979,1.202,872.508,,,
09:00:00 20/09/1979,1.21,880.455,,,
09:00:00 21/09/1979,1.212,883.177,,,
09:00:00 22/09/1979,1.2,869.746,,,
09:00:00 23/09/1979,1.187,857.138,,,
09:00:00 24/09/1979,1.18,849.685,,,
09:00:00 25/09/1979,1.179,849.184,,,
09:00:00 26/09/1979,1.194,864.057,,,
09:00:00 27/09/1979,1.211,881.41,,,
09:00:00 28/09/1979,1.284,961.906,,,
09:00:00 29/09/1979,1.505,1209.463,,,
09:00:00 30/09/1979,1.677,1426.186,,,
09:00:00 01/10/1979,1.806,1608.356,,,
09:00:00 02/10/1979,1.94,1786.651,,,
09:00:00 03/10/1979,2.194,2130.015,,,
09:00:00 04/10/1979,1.924,1763.714,,,
09:00:00 05/10/1979,1.696,1452.821,,,
09:00:00 06/10/1979,1.721,1487.889,,,
09:00:00 07/10/1979,1.873,1695.926,,,
09:00:00 08/10/1979,2.182,2116.173,,,
09:00:00 09/10/1979,2.739,2956.706,,,
09:00:00 10/10/1979,3.117,3593.64,,,
09:00:00 11/10/1979,3.263,3852.856,,,
09:00:00 12/10/1979,3.377,4057.546,,,
09:00:00 13/10/1979,3.494,4272.518,,,
09:00:00 14/10/1979,3.582,4435.608,,,
09:00:00 15/10/1979,3.594,4458.897,,,
09:00:00 16/10/1979,3.482,4250.701,,,
09:00:00 17/10/1979,3.23,3793.996,,,
09:00:00 18/10/1979,2.892,3207.665,,,
09:00:00 19/10/1979,2.614,2754.811,,,
09:00:00 20/10/1979,2.52,2607.706,,,
09:00:00 21/10/1979,2.605,2739.861,,,
09:00:00 22/10/1979,2.753,2976.664,,,
09:00:00 23/10/1979,2.853,3142.127,,,
09:00:00 24/10/1979,2.828,3099.676,,,
09:00:00 25/10/1979,2.683,2863.428,,,
09:00:00 26/10/1979,2.508,2590.013,,,
09:00:00 27/10/1979,2.036,1917.03,,,
09:00:00 28/10/1979,2.017,1887.192,,,
09:00:00 29/10/1979,1.94,1783.712,,,
09:00:00 30/10/1979,1.514,1224.826,,,
09:00:00 31/10/1979,1.777,1566.196,,,
09:00:00 01/11/1979,1.91,1743.959,,,
09:00:00 02/11/1979,1.914,1749.605,,,
09:00:00 03/11/1979,1.92,1757.162,,,
09:00:00 04/11/1979,2.167,2093.796,,,
09:00:00 05/11/1979,2.464,2523.45,,,
09:00:00 06/11/1979,2.574,2691.434,,,
09:00:00 07/11/1979,2.442,2490.292,,,
09:00:00 08/11/1979,2.215,2160.107,,,
09:00:00 09/11/1979,1.983,1842.162,,,
09:00:00 10/11/1979,1.777,1566.438,,,
09:00:00 11/11/1979,1.676,1424.867,,,
09:00:00 12/11/1979,1.658,1399.187,,,
09:00:00 13/11/1979,1.635,1367.732,,,
09:00:00 14/11/1979,1.587,1305.145,,,
09:00:00 15/11/1979,1.572,1287.065,,,
09:00:00 16/11/1979,1.549,1260.376,,,
09:00:00 17/11/1979,1.504,1208.573,,,
09:00:00 18/11/1979,1.456,1152.978,,,
09:00:00 19/11/1979,1.41,1101.731,,,
09:00:00 20/11/1979,1.321,1002.449,,,
09:00:00 21/11/1979,1.272,948.681,,,
09:00:00 22/11/1979,1.247,921.247,,,
09:00:00 23/11/1979,1.277,954.125,,,
09:00:00 24/11/1979,1.433,1127.968,,,
09:00:00 25/11/1979,1.667,1413.693,,,
09:00:00 26/11/1979,1.814,1617.967,,,
09:00:00 27/11/1979,1.818,1622.766,,,
09:00:00 28/11/1979,1.683,1435.101,,,
09:00:00 29/11/1979,1.504,1208.486,,,
09:00:00 30/11/1979,1.39,1078.634,,,
09:00:00 01/12/1979,1.278,955.248,,,
09:00:00 02/12/1979,1.234,906.525,,,
09:00:00 03/12/1979,1.203,873.354,,,
09:00:00 04/12/1979,1.173,843.07,,,
09:00:00 05/12/1979,1.124,794.109,,,
09:00:00 06/12/1979,1.133,802.879,,,
09:00:00 07/12/1979,1.147,816.93,,,
09:00:00 08/12/1979,1.146,816.03,,,
09:00:00 09/12/1979,1.145,814.729,,,
09:00:00 10/12/1979,1.145,814.158,,,
09:00:00 11/12/1979,1.148,817.251,,,
09:00:00 12/12/1979,1.145,815.039,,,
09:00:00 13/12/1979,1.142,811.554,,,
09:00:00 14/12/1979,1.122,791.443,,,
09:00:00 15/12/1979,1.104,774.083,,,
09:00:00 16/12/1979,1.113,783.159,,,
09:00:00 17/12/1979,1.114,783.643,,,
09:00:00 18/12/1979,1.128,798.002,,,
09:00:00 19/12/1979,1.139,808.523,,,
09:00:00 20/12/1979,1.139,809.044,,,
09:00:00 21/12/1979,1.145,814.814,,,
09:00:00 22/12/1979,1.182,851.586,,,
09:00:00 23/12/1979,1.218,890.049,,,
09:00:00 24/12/1979,1.216,886.85,,,
09:00:00 25/12/1979,1.227,899.469,,,
09:00:00 26/12/1979,1.231,903.773,,,
09:00:00 27/12/1979,1.196,866.251,,,
09:00:00 28/12/1979,1.142,811.204,,,
09:00:00 29/12/1979,1.122,791.455,,,
09:00:00 30/12/1979,1.116,785.698,,,
09:00:00 31/12/1979,1.12,789.942,,,
09:00:00 01/01/1980,1.145,814.113,,,
09:00:00 02/01/1980,1.163,832.844,,,
09:00:00 03/01/1980,1.149,818.715,,,
09:00:00 04/01/1980,1.123,792.972,,,
09:00:00 05/01/1980,1.116,785.84,,,
09:00:00 06/01/1980,1.128,798.006,,,
09:00:00 07/01/1980,1.13,799.361,,,
09:00:00 08/01/1980,1.125,795.113,,,
09:00:00 09/01/1980,1.118,787.435,,,
09:00:00 10/01/1980,1.122,791.612,,,
09:00:00 11/01/1980,1.119,788.312,,,
09:00:00 12/01/1980,1.111,780.457,,,
09:00:00 13/01/1980,1.108,778.31,,,
09:00:00 14/01/1980,1.114,783.852,,,
09:00:00 15/01/1980,1.105,774.644,,,
09:00:00 16/01/1980,1.133,802.466,,,
09:00:00 17/01/1980,1.106,776.079,,,
09:00:00 18/01/1980,1.076,745.826,,,
09:00:00 19/01/1980,1.079,748.906,,,
09:00:00 20/01/1980,1.098,767.971,,,
09:00:00 21/01/1980,1.127,796.613,,,
09:00:00 22/01/1980,1.156,825.211,,,
09:00:00 23/01/1980,1.185,855.017,,,
09:00:00 24/01/1980,1.235,908.363,,,
09:00:00 25/01/1980,1.289,967.305,,,
09:00:00 26/01/1980,1.317,998.953,,,
09:00:00 27/01/1980,1.323,1005.496,,,
09:00:00 28/01/1980,1.283,960.763,,,
09:00:00 29/01/1980,1.213,884.234,,,
09:00:00 30/01/1980,1.151,820.159,,,
09:00:00 31/01/1980,1.088,757.686,,,
09:00:00 01/02/1980,1.106,776.201,,,
09:00:00 02/02/1980,1.122,791.841,,,
09:00:00 03/02/1980,1.221,893.949,,,
09:00:00 04/02/1980,1.448,1144.82,,,
09:00:00 05/02/1980,1.564,1277.24,,,
09:00:00 06/02/1980,1.51,1214.656,,,
09:00:00 07/02/1980,1.328,1011.198,,,
09:00:00 08/02/1980,1.198,869.24,,,
09:00:00 09/02/1980,1.125,794.379,,,
09:00:00 10/02/1980,1.093,762.584,,,
09:00:00 11/02/1980,1.084,753.924,,,
09:00:00 12/02/1980,1.077,746.229,,,
09:00:00 13/02/1980,1.077,746.741,,,
09:00:00 14/02/1980,1.157,827.234,,,
09:00:00 15/02/1980,1.267,942.893,,,
09:00:00 16/02/1980,1.353,1038.206,,,
09:00:00 17/02/1980,1.385,1073.491,,,
09:00:00 18/02/1980,1.325,1007.664,,,
09:00:00 19/02/1980,1.211,882.825,,,
09:00:00 20/02/1980,1.134,804.135,,,
09:00:00 21/02/1980,1.098,767.485,,,
09:00:00 22/02/1980,1.077,746.237,,,
09:00:00 23/02/1980,1.09,760.311,,,
09:00:00 24/02/1980,1.112,782.044,,,
09:00:00 25/02/1980,1.12,789.935,,,
09:00:00 26/02/1980,1.116,785.355,,,
09:00:00 27/02/1980,1.093,762.706,,,
09:00:00 28/02/1980,1.082,751.475,,,
09:00:00 29/02/1980,1.082,751.734,,,
09:00:00 01/03/1980,1.087,756.662,,,
09:00:00 02/03/1980,1.085,755.121,,,
09:00:00 03/03/1980,1.073,743.07,,,
09:00:00 04/03/1980,1.081,750.704,,,
09:00:00 05/03/1980,1.085,755.024,,,
09:00:00 06/03/1980,1.087,756.684,,,
09:00:00 07/03/1980,1.107,777.336,,,
09:00:00 08/03/1980,1.128,797.315,,,
09:00:00 09/03/1980,1.131,800.264,,,
09:00:00 10/03/1980,1.128,797.781,,,
09:00:00 11/03/1980,1.1,769.761,,,
09:00:00 12/03/1980,1.068,737.869,,,
09:00:00 13/03/1980,1.031,700.965,,,
09:00:00 14/03/1980,0.968,638.99,,,
09:00:00 15/03/1980,0.936,608.783,,,
09:00:00 16/03/1980,0.929,602.181,,,
09:00:00 17/03/1980,0.955,626.952,,,
09:00:00 18/03/1980,0.964,635.577,,,
09:00:00 19/03/1980,0.952,623.712,,,
09:00:00 20/03/1980,0.797,484.079,,,
09:00:00 21/03/1980,0.735,430.606,,,
09:00:00 22/03/1980,0.569,303.274,,,
09:00:00 23/03/1980,0.909,585.281,,,
09:00:00 24/03/1980,1.071,740.286,,,
09:00:00 25/03/1980,1.061,730.326,,,
09:00:00 26/03/1980,1.06,729.38,,,
09:00:00 27/03/1980,1.042,711.206,,,
09:00:00 28/03/1980,1.025,694.925,,,
09:00:00 29/03/1980,1.002,671.777,,,
09:00:00 30/03/1980,0.979,649.273,,,
09:00:00 31/03/1980,0.981,651.624,,,
09:00:00 01/04/1980,1.0,669.629,,,
09:00:00 02/04/1980,1.023,692.936,,,
09:00:00 03/04/1980,1.019,688.535,,,
09:00:00 04/04/1980,1.011,680.943,,,
09:00:00 05/04/1980,0.993,663.632,,,
09:00:00 06/04/1980,0.962,633.392,,,
09:00:00 07/04/1980,0.954,625.496,,,
09:00:00 08/04/1980,0.954,625.753,,,
09:00:00 09/04/1980,0.962,633.145,,,
09:00:00 10/04/1980,0.955,626.705,,,
09:00:00 11/04/1980,0.944,616.069,,,
09:00:00 12/04/1980,0.956,627.24,,,
09:00:00 13/04/1980,0.981,651.652,,,
09:00:00 14/04/1980,1.0,669.898,,,
09:00:00 15/04/1980,0.989,658.962,,,
09:00:00 16/04/1980,0.943,615.058,,,
09:00:00 17/04/1980,0.948,620.135,,,
09:00:00 18/04/1980,0.922,595.313,,,
09:00:00 19/04/1980,0.856,534.86,,,
09:00:00 20/04/1980,0.774,463.257,,,
09:00:00 21/04/1980,0.682,387.047,,,
09:00:00 22/04/1980,0.596,319.191,,,
09:00:00 23/04/1980,0.524,265.441,,,
09:00:00 24/04/1980,0.52,262.862,,,
09:00:00 25/04/1980,0.509,255.317,,,
09:00:00 26/04/1980,0.603,324.897,,,
09:00:00 27/04/1980,0.695,397.998,,,
09:00:00 28/04/1980,0.655,365.479,,,
09:00:00 29/04/1980,0.571,299.831,,,
09:00:00 30/04/1980,0.504,251.863,,,
09:00:00 01/05/1980,0.463,225.565,,,
09:00:00 02/05/1980,0.448,216.266,,,
09:00:00 03/05/1980,0.452,218.71,,,
09:00:00 04/05/1980,0.622,341.369,,,
09:00:00 05/05/1980,0.949,623.336,,,
09:00:00 06/05/1980,1.231,905.75,,,
09:00:00 07/05/1980,1.4,1090.077,,,
09:00:00 08/05/1980,1.419,1110.935,,,
09:00:00 09/05/1980,1.35,1034.971,,,
09:00:00 10/05/1980,1.24,913.483,,,
09:00:00 11/05/1980,1.171,840.727,,,
09:00:00 12/05/1980,1.12,789.467,,,
09:00:00 13/05/1980,1.088,757.966,,,
09:00:00 14/05/1980,1.031,700.857,,,
09:00:00 15/05/1980,0.957,628.369,,,
09:00:00 16/05/1980,0.888,564.528,,,
09:00:00 17/05/1980,0.821,503.673,,,
09:00:00 18/05/1980,0.768,458.166,,,
09:00:00 19/05/1980,0.734,429.536,,,
09:00:00 20/05/1980,0.714,413.604,,,
09:00:00 21/05/1980,0.702,403.377,,,
09:00:00 22/05/1980,0.698,400.268,,,
09:00:00 23/05/1980,0.709,409.643,,,
09:00:00 24/05/1980,0.727,424.012,,,
09:00:00 25/05/1980,0.736,431.694,,,
09:00:00 26/05/1980,0.739,434.124,,,
09:00:00 27/05/1980,0.738,433.273,,,
09:00:00 28/05/1980,0.74,434.97,,,
09:00:00 29/05/1980,0.739,434.186,,,
09:00:00 30/05/1980,0.735,430.949,,,
09:00:00 31/05/1980,0.733,428.605,,,
09:00:00 01/06/1980,0.728,424.721,,,
09:00:00 02/06/1980,,,,,
09:00:00 03/06/1980,,,,,
09:00:00 04/06/1980,0.714,413.68,,,
09:00:00 05/06/1980,0.713,412.45,,,
09:00:00 06/06/1980,0.705,406.409,,,
09:00:00 07/06/1980,0.698,400.718,,,
09:00:00 08/06/1980,0.702,403.839,,,
09:00:00 09/06/1980,0.84,522.286,,,
09:00:00 10/06/1980,1.117,787.47,,,
09:00:00 11/06/1980,1.292,970.408,,,
09:00:00 12/06/1980,1.346,1030.677,,,
09:00:00 13/06/1980,1.35,1034.658,,,
09:00:00 14/06/1980,1.344,1027.819,,,
09:00:00 15/06/1980,1.324,1005.752,,,
09:00:00 16/06/1980,1.294,973.162,,,
09:00:00 17/06/1980,1.264,940.141,,,
09:00:00 18/06/1980,1.241,914.784,,,
09:00:00 19/06/1980,1.204,875.058,,,
09:00:00 20/06/1980,1.135,804.982,,,
09:00:00 21/06/1980,1.065,734.935,,,
09:00:00 22/06/1980,1.018,688.145,,,
09:00:00 23/06/1980,0.985,655.046,,,
09:00:00 24/06/1980,0.949,620.913,,,
09:00:00 25/06/1980,0.906,580.227,,,
09:00:00 26/06/1980,0.868,545.379,,,
09:00:00 27/06/1980,0.826,508.324,,,
09:00:00 28/06/1980,0.806,490.602,,,
09:00:00 29/06/1980,0.763,453.974,,,
09:00:00 30/06/1980,0.724,421.448,,,
09:00:00 01/07/1980,0.708,408.812,,,
09:00:00 02/07/1980,0.699,401.3,,,
09:00:00 03/07/1980,0.694,397.422,,,
09:00:00 04/07/1980,0.703,404.623,,,
09:00:00 05/07/1980,0.772,461.946,,,
09:00:00 06/07/1980,0.954,626.4,,,
09:00:00 07/07/1980,1.129,798.248,,,
09:00:00 08/07/1980,1.061,730.361,,,
09:00:00 09/07/1980,0.872,550.337,,,
09:00:00 10/07/1980,0.707,407.903,,,
09:00:00 11/07/1980,0.618,336.159,,,
09:00:00 12/07/1980,0.662,371.257,,,
09:00:00 13/07/1980,0.768,458.006,,,
09:00:00 14/07/1980,0.908,583.653,,,
09:00:00 15/07/1980,1.443,1152.107,,,
09:00:00 16/07/1980,2.283,2260.957,,,
09:00:00 17/07/1980,2.728,2936.473,,,
09:00:00 18/07/1980,2.888,3200.838,,,
09:00:00 19/07/1980,2.918,3251.025,,,
09:00:00 20/07/1980,2.906,3230.527,,,
09:00:00 21/07/1980,2.863,3158.787,,,
09:00:00 22/07/1980,2.752,2974.627,,,
09:00:00 23/07/1980,2.647,2806.783,,,
09:00:00 24/07/1980,2.482,2549.595,,,
09:00:00 25/07/1980,2.335,2332.159,,,
09:00:00 26/07/1980,1.943,1788.932,,,
09:00:00 27/07/1980,1.652,1394.317,,,
09:00:00 28/07/1980,1.422,1114.583,,,
09:00:00 29/07/1980,1.249,923.474,,,
09:00:00 30/07/1980,1.163,832.213,,,
09:00:00 31/07/1980,1.118,787.728,,,
09:00:00 01/08/1980,1.096,765.845,,,
09:00:00 02/08/1980,1.081,751.114,,,
09:00:00 03/08/1980,,,,,
09:00:00 04/08/1980,,,,,
09:00:00 05/08/1980,,,,,
09:00:00 06/08/1980,,,,,
09:00:00 07/08/1980,1.077,746.498,,,
09:00:00 08/08/1980,,,,,
09:00:00 09/08/1980,,,,,
09:00:00 10/08/1980,1.146,816.601,,,
09:00:00 11/08/1980,1.542,1263.308,,,
09:00:00 12/08/1980,2.083,1979.847,,,
09:00:00 13/08/1980,2.526,2617.221,,,
09:00:00 14/08/1980,2.535,2631.196,,,
09:00:00 15/08/1980,2.417,2452.211,,,
09:00:00 16/08/1980,2.286,2261.068,,,
09:00:00 17/08/1980,1.994,1858.935,,,
09:00:00 18/08/1980,1.699,1457.311,,,
09:00:00 19/08/1980,1.358,1045.716,,,
09:00:00 20/08/1980,1.204,875.099,,,
09:00:00 21/08/1980,1.154,823.275,,,
09:00:00 22/08/1980,1.123,792.444,,,
09:00:00 23/08/1980,1.122,791.735,,,
09:00:00 24/08/1980,1.127,796.648,,,
09:00:00 25/08/1980,1.13,799.451,,,
09:00:00 26/08/1980,1.127,796.966,,,
09:00:00 27/08/1980,1.109,779.114,,,
09:00:00 28/08/1980,,,,,
09:00:00 29/08/1980,,,,,
09:00:00 30/08/1980,1.007,677.382,,,
09:00:00 31/08/1980,0.922,596.071,,,
09:00:00 01/09/1980,0.87,547.182,,,
09:00:00 02/09/1980,0.699,401.621,,,
09:00:00 03/09/1980,0.667,374.974,,,
09:00:00 04/09/1980,,,,,
09:00:00 05/09/1980,,,,,
09:00:00 06/09/1980,0.631,346.916,,,
09:00:00 07/09/1980,0.653,364.33,,,
09:00:00 08/09/1980,0.72,418.848,,,
09:00:00 09/09/1980,0.875,552.298,,,
09:00:00 10/09/1980,1.017,686.963,,,
09:00:00 11/09/1980,1.068,737.651,,,
09:00:00 12/09/1980,1.078,747.208,,,
09:00:00 13/09/1980,0.99,661.161,,,
09:00:00 14/09/1980,0.842,523.091,,,
09:00:00 15/09/1980,0.65,361.977,,,
09:00:00 16/09/1980,0.479,236.327,,,
09:00:00 17/09/1980,0.322,151.906,,,
09:00:00 18/09/1980,0.29,137.145,,,
09:00:00 19/09/1980,0.275,129.724,,,
09:00:00 20/09/1980,0.256,120.231,,,
09:00:00 21/09/1980,0.239,111.246,,,
09:00:00 22/09/1980,0.229,105.665,,,
09:00:00 23/09/1980,,,,,
09:00:00 24/09/1980,,,,,
09:00:00 25/09/1980,,,,,
09:00:00 26/09/1980,0.209,93.385,,,
09:00:00 27/09/1980,0.207,91.899,,,
09:00:00 28/09/1980,0.207,92.216,,,
09:00:00 29/09/1980,0.201,88.75,,,
09:00:00 30/09/1980,,,,,
09:00:00 01/10/1980,,,,,
09:00:00 02/10/1980,,,,,
09:00:00 03/10/1980,0.203,89.462,,,
09:00:00 04/10/1980,,,,,
09:00:00 05/10/1980,,,,,
09:00:00 06/10/1980,0.212,95.277,,,
09:00:00 07/10/1980,0.267,125.618,,,
09:00:00 08/10/1980,0.27,127.528,,,
09:00:00 09/10/1980,0.246,115.019,,,
09:00:00 10/10/1980,0.273,128.551,,,
09:00:00 11/10/1980,0.34,160.365,,,
09:00:00 12/10/1980,0.402,190.378,,,
09:00:00 13/10/1980,0.435,208.427,,,
09:00:00 14/10/1980,0.471,230.843,,,
09:00:00 15/10/1980,0.538,274.783,,,
09:00:00 16/10/1980,0.569,297.701,,,
09:00:00 17/10/1980,0.742,436.873,,,
09:00:00 18/10/1980,0.922,596.01,,,
09:00:00 19/10/1980,1.034,703.43,,,
09:00:00 20/10/1980,1.09,760.317,,,
09:00:00 21/10/1980,1.076,745.359,,,
09:00:00 22/10/1980,1.067,736.938,,,
09:00:00 23/10/1980,1.049,718.876,,,
09:00:00 24/10/1980,1.029,698.837,,,
09:00:00 25/10/1980,0.931,604.659,,,
09:00:00 26/10/1980,0.729,425.584,,,
09:00:00 27/10/1980,0.625,341.903,,,
09:00:00 28/10/1980,0.555,287.271,,,
09:00:00 29/10/1980,0.539,275.74,,,
09:00:00 30/10/1980,0.542,278.175,,,
09:00:00 31/10/1980,0.436,210.738,,,
09:00:00 01/11/1980,0.363,170.904,,,
09:00:00 02/11/1980,0.302,142.391,,,
09:00:00 03/11/1980,0.274,129.257,,,
09:00:00 04/11/1980,0.257,120.696,,,
09:00:00 05/11/1980,0.267,125.563,,,
09:00:00 06/11/1980,0.376,178.384,,,
09:00:00 07/11/1980,0.522,264.783,,,
09:00:00 08/11/1980,0.668,375.967,,,
09:00:00 09/11/1980,0.743,437.108,,,
09:00:00 10/11/1980,0.708,408.791,,,
09:00:00 11/11/1980,0.633,348.407,,,
09:00:00 12/11/1980,0.556,287.624,,,
09:00:00 13/11/1980,0.529,268.949,,,
09:00:00 14/11/1980,0.562,293.064,,,
09:00:00 15/11/1980,0.684,388.836,,,
09:00:00 16/11/1980,0.736,431.278,,,
09:00:00 17/11/1980,0.669,376.772,,,
09:00:00 18/11/1980,0.542,278.908,,,
09:00:00 19/11/1980,0.444,213.848,,,
09:00:00 20/11/1980,0.372,175.291,,,
09:00:00 21/11/1980,0.323,152.361,,,
09:00:00 22/11/1980,0.297,140.412,,,
09:00:00 23/11/1980,,,,,
09:00:00 24/11/1980,,,,,
09:00:00 25/11/1980,0.29,136.894,,,
09:00:00 26/11/1980,0.29,136.786,,,
09:00:00 27/11/1980,0.285,134.605,,,
09:00:00 28/11/1980,0.272,128.288,,,
09:00:00 29/11/1980,0.274,129.352,,,
09:00:00 30/11/1980,0.259,122.033,,,
09:00:00 01/12/1980,0.259,121.983,,,
09:00:00 02/12/1980,0.26,122.255,,,
09:00:00 03/12/1980,0.273,128.67,,,
09:00:00 04/12/1980,0.28,132.032,,,
09:00:00 05/12/1980,0.296,139.677,,,
09:00:00 06/12/1980,0.311,146.648,,,
09:00:00 07/12/1980,0.325,153.098,,,
09:00:00 08/12/1980,0.337,158.796,,,
09:00:00 09/12/1980,0.343,161.666,,,
09:00:00 10/12/1980,0.382,180.569,,,
09:00:00 11/12/1980,0.446,215.433,,,
09:00:00 12/12/1980,0.495,246.069,,,
09:00:00 13/12/1980,0.532,270.958,,,
09:00:00 14/12/1980,0.555,287.469,,,
09:00:00 15/12/1980,0.534,272.093,,,
09:00:00 16/12/1980,0.491,243.267,,,
09:00:00 17/12/1980,0.478,234.834,,,
09:00:00 18/12/1980,0.486,240.544,,,
09:00:00 19/12/1980,0.502,250.536,,,
09:00:00 20/12/1980,0.503,251.463,,,
09:00:00 21/12/1980,0.462,224.863,,,
09:00:00 22/12/1980,0.385,181.758,,,
09:00:00 23/12/1980,0.32,150.718,,,
09:00:00 24/12/1980,0.29,136.991,,,
09:00:00 25/12/1980,0.288,136.205,,,
09:00:00 26/12/1980,0.282,133.056,,,
09:00:00 27/12/1980,0.277,130.506,,,
09:00:00 28/12/1980,0.266,125.219,,,
09:00:00 29/12/1980,0.256,120.276,,,
09:00:00 30/12/1980,0.28,131.974,,,
09:00:00 31/12/1980,0.341,160.753,,,
09:00:00 01/01/1981,0.381,179.796,,,
09:00:00 02/01/1981,0.408,193.512,,,
09:00:00 03/01/1981,0.393,185.727,,,
09:00:00 04/01/1981,0.332,156.685,,,
09:00:00 05/01/1981,0.282,132.987,,,
09:00:00 06/01/1981,0.261,122.982,,,
09:00:00 07/01/1981,0.263,123.797,,,
09:00:00 08/01/1981,0.27,127.169,,,
09:00:00 09/01/1981,0.279,131.641,,,
09:00:00 10/01/1981,0.291,137.214,,,
09:00:00 11/01/1981,0.303,142.995,,,
09:00:00 12/01/1981,0.3,141.813,,,
09:00:00 13/01/1981,0.293,138.214,,,
09:00:00 14/01/1981,0.281,132.434,,,
09:00:00 15/01/1981,0.248,115.817,,,
09:00:00 16/01/1981,0.233,107.953,,,
09:00:00 17/01/1981,0.233,108.112,,,
09:00:00 18/01/1981,0.253,118.52,,,
09:00:00 19/01/1981,0.267,126.015,,,
09:00:00 20/01/1981,0.265,124.94,,,
09:00:00 21/01/1981,0.26,122.54,,,
09:00:00 22/01/1981,0.234,108.618,,,
09:00:00 23/01/1981,0.226,103.663,,,
09:00:00 24/01/1981,0.249,116.576,,,
09:00:00 25/01/1981,0.276,130.083,,,
09:00:00 26/01/1981,0.291,137.367,,,
09:00:00 27/01/1981,0.286,134.982,,,
09:00:00 28/01/1981,0.324,152.938,,,
09:00:00 29/01/1981,0.369,173.526,,,
09:00:00 30/01/1981,0.362,170.355,,,
09:00:00 31/01/1981,0.361,169.853,,,
09:00:00 01/02/1981,0.343,161.406,,,
09:00:00 02/02/1981,0.309,145.745,,,
09:00:00 03/02/1981,0.284,134.053,,,
09:00:00 04/02/1981,0.257,120.833,,,
09:00:00 05/02/1981,0.237,110.16,,,
09:00:00 06/02/1981,0.282,132.825,,,
09:00:00 07/02/1981,0.341,160.459,,,
09:00:00 08/02/1981,0.332,156.66,,,
09:00:00 09/02/1981,0.316,149.038,,,
09:00:00 10/02/1981,0.291,137.306,,,
09:00:00 11/02/1981,0.293,138.602,,,
09:00:00 12/02/1981,0.303,142.934,,,
09:00:00 13/02/1981,0.31,146.382,,,
09:00:00 14/02/1981,0.736,435.926,,,
09:00:00 15/02/1981,0.792,478.465,,,
09:00:00 16/02/1981,0.757,449.294,,,
09:00:00 17/02/1981,0.435,214.257,,,
09:00:00 18/02/1981,0.308,145.335,,,
09:00:00 19/02/1981,0.249,116.594,,,
09:00:00 20/02/1981,0.244,113.83,,,
09:00:00 21/02/1981,0.28,132.11,,,
09:00:00 22/02/1981,0.323,152.526,,,
09:00:00 23/02/1981,0.365,171.876,,,
09:00:00 24/02/1981,0.405,191.869,,,
09:00:00 25/02/1981,0.404,191.602,,,
09:00:00 26/02/1981,0.418,199.042,,,
09:00:00 27/02/1981,0.496,247.345,,,
09:00:00 28/02/1981,0.636,350.307,,,
09:00:00 01/03/1981,0.638,352.455,,,
09:00:00 02/03/1981,0.5,250.259,,,
09:00:00 03/03/1981,0.395,187.188,,,
09:00:00 04/03/1981,0.355,166.943,,,
09:00:00 05/03/1981,0.345,162.483,,,
09:00:00 06/03/1981,0.321,151.587,,,
09:00:00 07/03/1981,0.313,147.841,,,
09:00:00 08/03/1981,0.319,150.253,,,
09:00:00 09/03/1981,0.317,149.511,,,
09:00:00 10/03/1981,0.305,144.053,,,
09:00:00 11/03/1981,0.3,141.669,,,
09:00:00 12/03/1981,0.303,142.897,,,
09:00:00 13/03/1981,0.292,137.806,,,
09:00:00 14/03/1981,0.268,126.271,,,
09:00:00 15/03/1981,0.275,129.596,,,
09:00:00 16/03/1981,0.288,136.107,,,
09:00:00 17/03/1981,0.285,134.612,,,
09:00:00 18/03/1981,0.227,104.31,,,